| time (UTC) | temp C | wind direction | speed KPH | gust KPH | rain 1hr cm | rain 24hr cm | rain mn cm | humidity % | barometer mb |
| 20260505221448 | 25 | 239 | 3.2 | 11.3 | 0.00 | 0.00 | 0.00 | 45 | 1013.2 |
| 20260505220945 | 25 | 166 | 1.6 | 6.4 | 0.00 | 0.00 | 0.00 | 45 | 1013.3 |
| 20260505220442 | 25 | 259 | 4.8 | 12.9 | 0.00 | 0.00 | 0.00 | 44 | 1013.4 |
| 20260505215940 | 25 | 204 | 3.2 | 4.8 | 0.00 | 0.00 | 0.00 | 44 | 1013.1 |
| 20260505215438 | 26 | 321 | 4.8 | 4.8 | 0.00 | 0.00 | 0.00 | 45 | 1013.4 |
| 20260505214935 | 25 | 157 | 1.6 | 6.4 | 0.00 | 0.00 | 0.00 | 43 | 1013.1 |
| 20260505214433 | 26 | 180 | 4.8 | 6.4 | 0.00 | 0.00 | 0.00 | 44 | 1013.2 |
| 20260505213930 | 25 | 197 | 4.8 | 4.8 | 0.00 | 0.00 | 0.00 | 44 | 1013.4 |
| 20260505213428 | 26 | 154 | 3.2 | 4.8 | 0.00 | 0.00 | 0.00 | 43 | 1013.3 |
| 20260505212924 | 25 | 254 | 1.6 | 16.1 | 0.00 | 0.00 | 0.00 | 43 | 1013.3 |
| 20260505212421 | 25 | 215 | 6.4 | 16.1 | 0.00 | 0.00 | 0.00 | 43 | 1013.2 |
| 20260505211917 | 25 | 150 | 4.8 | 12.9 | 0.00 | 0.00 | 0.00 | 42 | 1013.3 |
| 20260505211415 | 26 | 170 | 4.8 | 8.0 | 0.00 | 0.00 | 0.00 | 42 | 1013.4 |
| 20260505210911 | 26 | 203 | 8.0 | 14.5 | 0.00 | 0.00 | 0.00 | 42 | 1013.3 |
| 20260505210408 | 26 | 192 | 0.0 | 6.4 | 0.00 | 0.00 | 0.00 | 41 | 1013.3 |
| 20260505205905 | 26 | 144 | 6.4 | 6.4 | 0.00 | 0.00 | 0.00 | 40 | 1013.3 |
| 20260505205403 | 26 | 300 | 3.2 | 4.8 | 0.00 | 0.00 | 0.00 | 41 | 1013.3 |
| 20260505204900 | 26 | 208 | 4.8 | 8.0 | 0.00 | 0.00 | 0.00 | 38 | 1013.7 |
| 20260505204357 | 26 | 289 | 3.2 | 8.0 | 0.00 | 0.00 | 0.00 | 40 | 1013.7 |
| 20260505203855 | 26 | 184 | 0.0 | 4.8 | 0.00 | 0.00 | 0.00 | 41 | 1013.6 |
| 20260505203351 | 26 | 210 | 3.2 | 8.0 | 0.00 | 0.00 | 0.00 | 41 | 1013.7 |
| 20260505202847 | 26 | 264 | 0.0 | 9.7 | 0.00 | 0.00 | 0.00 | 42 | 1013.6 |
| 20260505202344 | 26 | 189 | 0.0 | 6.4 | 0.00 | 0.00 | 0.00 | 41 | 1013.7 |
| 20260505201840 | 26 | 258 | 4.8 | 9.7 | 0.00 | 0.00 | 0.00 | 41 | 1013.7 |
| 20260505201338 | 26 | 196 | 8.0 | 12.9 | 0.00 | 0.00 | 0.00 | 41 | 1013.8 |
| 20260505200836 | 26 | 169 | 4.8 | 6.4 | 0.00 | 0.00 | 0.00 | 41 | 1013.9 |
| 20260505200333 | 26 | 162 | 1.6 | 9.7 | 0.00 | 0.00 | 0.00 | 40 | 1013.9 |
| 20260505195828 | 26 | 180 | 3.2 | 8.0 | 0.00 | 0.00 | 0.00 | 41 | 1014.0 |
| 20260505195325 | 26 | 265 | 3.2 | 9.7 | 0.00 | 0.00 | 0.00 | 42 | 1014.0 |
| 20260505194822 | 26 | 312 | 3.2 | 4.8 | 0.00 | 0.00 | 0.00 | 41 | 1014.3 |
| 20260505194320 | 26 | 261 | 1.6 | 8.0 | 0.00 | 0.00 | 0.00 | 40 | 1014.4 |
| 20260505193815 | 26 | 195 | 0.0 | 9.7 | 0.00 | 0.00 | 0.00 | 41 | 1014.6 |
| 20260505193313 | 26 | 96 | 3.2 | 9.7 | 0.00 | 0.00 | 0.00 | 41 | 1014.5 |
| 20260505192811 | 26 | 201 | 3.2 | 8.0 | 0.00 | 0.00 | 0.00 | 41 | 1014.1 |
| 20260505192310 | 27 | 257 | 1.6 | 6.4 | 0.00 | 0.00 | 0.00 | 40 | 1014.4 |
| 20260505191806 | 27 | 0 | 0.0 | 4.8 | 0.00 | 0.00 | 0.00 | 40 | 1014.8 |
| 20260505191304 | 27 | 312 | 0.0 | 3.2 | 0.00 | 0.00 | 0.00 | 42 | 1014.9 |
| 20260505190801 | 26 | 246 | 3.2 | 8.0 | 0.00 | 0.00 | 0.00 | 41 | 1014.8 |
| 20260505190256 | 26 | 239 | 3.2 | 9.7 | 0.00 | 0.00 | 0.00 | 40 | 1015.1 |
| 20260505185752 | 27 | 270 | 4.8 | 4.8 | 0.00 | 0.00 | 0.00 | 41 | 1014.9 |
| 20260505185249 | 27 | 262 | 3.2 | 17.7 | 0.00 | 0.00 | 0.00 | 41 | 1015.1 |
| 20260505184745 | 27 | 277 | 4.8 | 6.4 | 0.00 | 0.00 | 0.00 | 40 | 1015.1 |
| 20260505184242 | 27 | 180 | 8.0 | 8.0 | 0.00 | 0.00 | 0.00 | 39 | 1015.2 |
| 20260505183739 | 26 | 218 | 8.0 | 14.5 | 0.00 | 0.00 | 0.00 | 40 | 1015.4 |
| 20260505183236 | 26 | 282 | 3.2 | 4.8 | 0.00 | 0.00 | 0.00 | 41 | 1015.3 |
| 20260505182733 | 27 | 20 | 1.6 | 11.3 | 0.00 | 0.00 | 0.00 | 40 | 1015.3 |
| 20260505182230 | 26 | 187 | 0.0 | 16.1 | 0.00 | 0.00 | 0.00 | 41 | 1015.1 |
| 20260505181726 | 26 | 180 | 3.2 | 6.4 | 0.00 | 0.00 | 0.00 | 40 | 1015.3 |
| 20260505181224 | 26 | 230 | 6.4 | 8.0 | 0.00 | 0.00 | 0.00 | 42 | 1015.3 |
| 20260505180720 | 26 | 172 | 3.2 | 6.4 | 0.00 | 0.00 | 0.00 | 39 | 1015.5 |
| 20260505180217 | 26 | 198 | 0.0 | 6.4 | 0.00 | 0.00 | 0.00 | 39 | 1015.4 |
| 20260505175713 | 26 | 246 | 0.0 | 3.2 | 0.00 | 0.00 | 0.00 | 41 | 1015.3 |
| 20260505175209 | 26 | 288 | 4.8 | 4.8 | 0.00 | 0.00 | 0.00 | 40 | 1015.5 |
| 20260505174706 | 26 | 270 | 0.0 | 14.5 | 0.00 | 0.00 | 0.00 | 41 | 1015.6 |
| 20260505174203 | 26 | 281 | 3.2 | 4.8 | 0.00 | 0.00 | 0.00 | 42 | 1015.7 |
| 20260505173659 | 26 | 111 | 0.0 | 9.7 | 0.00 | 0.00 | 0.00 | 40 | 1015.9 |
| 20260505173156 | 26 | 227 | 4.8 | 6.4 | 0.00 | 0.00 | 0.00 | 41 | 1015.8 |
| 20260505172653 | 26 | 152 | 4.8 | 8.0 | 0.00 | 0.00 | 0.00 | 43 | 1015.9 |
| 20260505172150 | 25 | 254 | 1.6 | 8.0 | 0.00 | 0.00 | 0.00 | 46 | 1016.1 |
| 20260505171649 | 25 | 243 | 3.2 | 6.4 | 0.00 | 0.00 | 0.00 | 46 | 1015.9 |
| 20260505171147 | 24 | 180 | 9.7 | 11.3 | 0.00 | 0.00 | 0.00 | 45 | 1016.0 |
| 20260505170644 | 25 | 196 | 0.0 | 9.7 | 0.00 | 0.00 | 0.00 | 45 | 1016.5 |
| 20260505170141 | 25 | 270 | 3.2 | 16.1 | 0.00 | 0.00 | 0.00 | 46 | 1016.6 |
| 20260505165641 | 26 | 295 | 3.2 | 6.4 | 0.00 | 0.00 | 0.00 | 44 | 1016.5 |
| 20260505165137 | 25 | 208 | 4.8 | 16.1 | 0.00 | 0.00 | 0.00 | 45 | 1016.1 |
| 20260505164633 | 25 | 250 | 3.2 | 6.4 | 0.00 | 0.00 | 0.00 | 45 | 1016.3 |
| 20260505164130 | 25 | 75 | 1.6 | 9.7 | 0.00 | 0.00 | 0.00 | 45 | 1016.3 |
| 20260505163629 | 25 | 166 | 4.8 | 14.5 | 0.00 | 0.00 | 0.00 | 45 | 1016.4 |
| 20260505163126 | 25 | 277 | 0.0 | 4.8 | 0.00 | 0.00 | 0.00 | 43 | 1016.3 |
| 20260505162623 | 25 | 301 | 3.2 | 4.8 | 0.00 | 0.00 | 0.00 | 44 | 1016.4 |
| 20260505162121 | 25 | 139 | 11.3 | 11.3 | 0.00 | 0.00 | 0.00 | 44 | 1016.4 |
| 20260505161618 | 25 | 159 | 3.2 | 4.8 | 0.00 | 0.00 | 0.00 | 47 | 1016.1 |
| 20260505161115 | 25 | 160 | 1.6 | 6.4 | 0.00 | 0.00 | 0.00 | 47 | 1016.5 |
| 20260505160613 | 25 | 250 | 3.2 | 4.8 | 0.00 | 0.00 | 0.00 | 49 | 1016.5 |
| 20260505160110 | 24 | 172 | 4.8 | 8.0 | 0.00 | 0.00 | 0.00 | 49 | 1016.8 |
| 20260505153049 | 23 | 285 | 0.0 | 4.8 | 0.00 | 0.00 | 0.00 | 54 | 1017.0 |
| 20260505152546 | 23 | 254 | 0.0 | 4.8 | 0.00 | 0.00 | 0.00 | 55 | 1016.8 |
| 20260505152042 | 22 | 270 | 3.2 | 4.8 | 0.00 | 0.00 | 0.00 | 57 | 1017.0 |
| 20260505151537 | 21 | 138 | 4.8 | 8.0 | 0.00 | 0.00 | 0.00 | 58 | 1017.1 |
| 20260505151035 | 22 | 172 | 0.0 | 4.8 | 0.00 | 0.00 | 0.00 | 59 | 1017.0 |
| 20260505150531 | 21 | 165 | 6.4 | 6.4 | 0.00 | 0.00 | 0.00 | 58 | 1016.8 |
| 20260505140456 | 19 | 255 | 3.2 | 4.8 | 0.00 | 0.00 | 0.00 | 61 | 1016.7 |
| 20260505124909 | 17 | 307 | 0.0 | 3.2 | 0.00 | 0.00 | 0.00 | 77 | 1016.3 |
| 20260505124407 | 16 | 261 | 0.0 | 3.2 | 0.00 | 0.00 | 0.00 | 76 | 1016.4 |
| 20260505123902 | 16 | 270 | 0.0 | 3.2 | 0.00 | 0.00 | 0.00 | 79 | 1016.3 |
| 20260505123359 | 15 | 270 | 0.0 | 1.6 | 0.00 | 0.00 | 0.00 | 80 | 1016.4 |
| 20260505122855 | 15 | 0 | 0.0 | 1.6 | 0.00 | 0.00 | 0.00 | 80 | 1016.5 |
| 20260505122353 | 14 | 246 | 0.0 | 3.2 | 0.00 | 0.00 | 0.00 | 82 | 1016.1 |
| 20260505121849 | 13 | 180 | 3.2 | 6.4 | 0.00 | 0.00 | 0.00 | 84 | 1016.1 |
| 20260505121346 | 12 | 164 | 3.2 | 3.2 | 0.00 | 0.00 | 0.00 | 85 | 1015.9 |
| 20260505120842 | 12 | 166 | 0.0 | 1.6 | 0.00 | 0.00 | 0.00 | 86 | 1016.3 |
| 20260505120338 | 11 | 159 | 0.0 | 3.2 | 0.00 | 0.00 | 0.00 | 86 | 1016.1 |
| 20260505115837 | 11 | 180 | 0.0 | 0.0 | 0.00 | 0.00 | 0.00 | 87 | 1016.1 |
| 20260505115334 | 11 | 203 | 0.0 | 0.0 | 0.00 | 0.00 | 0.00 | 87 | 1016.4 |
| 20260505114832 | 10 | 203 | 0.0 | 1.6 | 0.00 | 0.00 | 0.00 | 87 | 1016.0 |
| 20260505114328 | 10 | 180 | 0.0 | 1.6 | 0.00 | 0.00 | 0.00 | 88 | 1016.0 |
| 20260505113825 | 10 | 187 | 0.0 | 1.6 | 0.00 | 0.00 | 0.00 | 89 | 1015.9 |
| 20260505113321 | 10 | 81 | 0.0 | 0.0 | 0.00 | 0.00 | 0.00 | 89 | 1015.8 |
| 20260505112817 | 9 | 81 | 0.0 | 0.0 | 0.00 | 0.00 | 0.00 | 91 | 1015.4 |
| 20260505112315 | 8 | 81 | 0.0 | 0.0 | 0.00 | 0.00 | 0.00 | 91 | 1015.6 |
| 20260505111810 | 8 | 29 | 0.0 | 1.6 | 0.00 | 0.00 | 0.00 | 91 | 1015.5 |
| 20260505111306 | 8 | 29 | 3.2 | 3.2 | 0.00 | 0.00 | 0.00 | 91 | 1015.5 |
| 20260505110802 | 8 | 23 | 0.0 | 1.6 | 0.00 | 0.00 | 0.00 | 91 | 1015.6 |
| 20260505110300 | 8 | 15 | 0.0 | 4.8 | 0.00 | 0.00 | 0.00 | 90 | 1015.3 |
| 20260505101734 | 10 | 160 | 0.0 | 0.0 | 0.00 | 0.00 | 0.00 | 81 | 1015.2 |
| 20260505101230 | 11 | 160 | 0.0 | 0.0 | 0.00 | 0.00 | 0.00 | 78 | 1015.2 |
| 20260505100727 | 11 | 160 | 0.0 | 0.0 | 0.00 | 0.00 | 0.00 | 77 | 1015.3 |
| 20260505100223 | 11 | 175 | 0.0 | 0.0 | 0.00 | 0.00 | 0.00 | 76 | 1015.2 |
| 20260505095718 | 11 | 175 | 0.0 | 0.0 | 0.00 | 0.00 | 0.00 | 77 | 1015.3 |
| 20260505095217 | 11 | 175 | 0.0 | 3.2 | 0.00 | 0.00 | 0.00 | 76 | 1015.4 |
| 20260505094712 | 11 | 180 | 0.0 | 1.6 | 0.00 | 0.00 | 0.00 | 77 | 1015.3 |
| 20260505094209 | 11 | 15 | 0.0 | 0.0 | 0.00 | 0.00 | 0.00 | 79 | 1015.3 |
| 20260505093705 | 11 | 15 | 0.0 | 0.0 | 0.00 | 0.00 | 0.00 | 78 | 1015.2 |
| 20260505093203 | 11 | 15 | 0.0 | 1.6 | 0.00 | 0.00 | 0.00 | 77 | 1015.3 |
| 20260505092659 | 11 | 261 | 0.0 | 0.0 | 0.00 | 0.00 | 0.00 | 76 | 1015.4 |
| 20260505092158 | 12 | 270 | 0.0 | 1.6 | 0.00 | 0.00 | 0.00 | 75 | 1015.4 |
| 20260505091655 | 11 | 180 | 0.0 | 1.6 | 0.00 | 0.00 | 0.00 | 76 | 1015.3 |
| 20260505091153 | 11 | 195 | 0.0 | 1.6 | 0.00 | 0.00 | 0.00 | 75 | 1015.2 |
| 20260505090650 | 11 | 188 | 0.0 | 0.0 | 0.00 | 0.00 | 0.00 | 76 | 1015.1 |
| 20260505090148 | 11 | 188 | 0.0 | 3.2 | 0.00 | 0.00 | 0.00 | 77 | 1015.2 |
| 20260505085645 | 12 | 191 | 0.0 | 0.0 | 0.00 | 0.00 | 0.00 | 76 | 1014.9 |
| 20260505085143 | 12 | 186 | 1.6 | 3.2 | 0.00 | 0.00 | 0.00 | 76 | 1015.2 |
| 20260505084641 | 11 | 195 | 0.0 | 1.6 | 0.00 | 0.00 | 0.00 | 76 | 1015.0 |
| 20260505084139 | 11 | 180 | 0.0 | 1.6 | 0.00 | 0.00 | 0.00 | 78 | 1015.3 |
| 20260505083636 | 11 | 180 | 0.0 | 0.0 | 0.00 | 0.00 | 0.00 | 80 | 1015.2 |
| 20260505083132 | 11 | 172 | 0.0 | 0.0 | 0.00 | 0.00 | 0.00 | 79 | 1015.3 |
| 20260505082628 | 11 | 180 | 0.0 | 1.6 | 0.00 | 0.00 | 0.00 | 80 | 1015.4 |
| 20260505082125 | 11 | 294 | 0.0 | 0.0 | 0.00 | 0.00 | 0.00 | 81 | 1015.2 |
| 20260505081621 | 11 | 0 | 0.0 | 0.0 | 0.00 | 0.00 | 0.00 | 80 | 1015.2 |
| 20260505081119 | 11 | 145 | 0.0 | 1.6 | 0.00 | 0.00 | 0.00 | 80 | 1015.0 |
| 20260505080615 | 11 | 0 | 0.0 | 1.6 | 0.00 | 0.00 | 0.00 | 80 | 1015.0 |
| 20260505080112 | 11 | 307 | 3.2 | 3.2 | 0.00 | 0.00 | 0.00 | 80 | 1015.2 |
| 20260505075608 | 11 | 162 | 3.2 | 3.2 | 0.00 | 0.00 | 0.00 | 79 | 1014.9 |
| 20260505075105 | 11 | 203 | 0.0 | 0.0 | 0.00 | 0.00 | 0.00 | 79 | 1015.0 |
| 20260505074602 | 12 | 203 | 0.0 | 0.0 | 0.00 | 0.00 | 0.00 | 77 | 1015.0 |
| 20260505074059 | 12 | 254 | 0.0 | 0.0 | 0.00 | 0.00 | 0.00 | 77 | 1014.6 |
| 20260505073556 | 12 | 254 | 0.0 | 0.0 | 0.00 | 0.00 | 0.00 | 75 | 1015.0 |
| 20260505073055 | 12 | 220 | 0.0 | 3.2 | 0.00 | 0.00 | 0.00 | 75 | 1014.8 |
| 20260505072550 | 12 | 188 | 0.0 | 0.0 | 0.00 | 0.00 | 0.00 | 75 | 1014.8 |
| 20260505072047 | 12 | 188 | 0.0 | 0.0 | 0.00 | 0.00 | 0.00 | 74 | 1014.9 |
| 20260505071542 | 13 | 188 | 0.0 | 0.0 | 0.00 | 0.00 | 0.00 | 72 | 1015.0 |
| 20260505071041 | 13 | 180 | 0.0 | 0.0 | 0.00 | 0.00 | 0.00 | 72 | 1014.8 |
| 20260505070538 | 13 | 188 | 0.0 | 1.6 | 0.00 | 0.00 | 0.00 | 71 | 1015.0 |
| 20260505070033 | 13 | 188 | 0.0 | 0.0 | 0.00 | 0.00 | 0.00 | 71 | 1014.8 |
| 20260505065529 | 13 | 195 | 0.0 | 1.6 | 0.00 | 0.00 | 0.00 | 70 | 1014.7 |
| 20260505065026 | 13 | 180 | 0.0 | 0.0 | 0.00 | 0.00 | 0.00 | 71 | 1014.9 |
| 20260505064523 | 13 | 195 | 0.0 | 1.6 | 0.00 | 0.00 | 0.00 | 69 | 1014.8 |
| 20260505064022 | 13 | 195 | 0.0 | 1.6 | 0.00 | 0.00 | 0.00 | 68 | 1014.8 |
| 20260505063519 | 14 | 203 | 0.0 | 1.6 | 0.00 | 0.00 | 0.00 | 67 | 1014.7 |
| 20260505063014 | 14 | 254 | 0.0 | 1.6 | 0.00 | 0.00 | 0.00 | 66 | 1015.0 |
| 20260505062511 | 15 | 200 | 0.0 | 0.0 | 0.00 | 0.00 | 0.00 | 65 | 1015.0 |
| 20260505062008 | 15 | 200 | 0.0 | 0.0 | 0.00 | 0.00 | 0.00 | 67 | 1015.1 |
| 20260505061506 | 15 | 200 | 0.0 | 0.0 | 0.00 | 0.00 | 0.00 | 65 | 1015.0 |
| 20260505061004 | 15 | 195 | 0.0 | 1.6 | 0.00 | 0.00 | 0.00 | 64 | 1015.0 |
| 20260505060501 | 15 | 188 | 0.0 | 0.0 | 0.00 | 0.00 | 0.00 | 63 | 1015.0 |
| 20260505055957 | 15 | 175 | 0.0 | 1.6 | 0.00 | 0.00 | 0.00 | 62 | 1015.0 |
| 20260505055453 | 15 | 180 | 0.0 | 1.6 | 0.00 | 0.00 | 0.00 | 62 | 1015.0 |
| 20260505054950 | 15 | 192 | 0.0 | 1.6 | 0.00 | 0.00 | 0.00 | 63 | 1015.0 |
| 20260505054447 | 15 | 195 | 0.0 | 1.6 | 0.00 | 0.00 | 0.00 | 63 | 1015.1 |
| 20260505053945 | 15 | 246 | 0.0 | 1.6 | 0.00 | 0.00 | 0.00 | 62 | 1015.2 |
| 20260505053442 | 16 | 209 | 0.0 | 1.6 | 0.00 | 0.00 | 0.00 | 61 | 1015.1 |
| 20260505052938 | 16 | 270 | 0.0 | 1.6 | 0.00 | 0.00 | 0.00 | 62 | 1015.3 |
| 20260505052436 | 16 | 270 | 0.0 | 0.0 | 0.00 | 0.00 | 0.00 | 62 | 1015.1 |
| 20260505051933 | 15 | 286 | 0.0 | 0.0 | 0.00 | 0.00 | 0.00 | 64 | 1015.0 |
| 20260505051429 | 15 | 286 | 0.0 | 1.6 | 0.00 | 0.00 | 0.00 | 66 | 1015.2 |
| 20260505050928 | 14 | 0 | 0.0 | 0.0 | 0.00 | 0.00 | 0.00 | 75 | 1015.1 |
| 20260505050426 | 13 | 0 | 0.0 | 0.0 | 0.00 | 0.00 | 0.00 | 78 | 1015.2 |
| 20260505041353 | 14 | 7 | 0.0 | 0.0 | 0.00 | 0.00 | 0.00 | 73 | 1015.1 |
| 20260505040850 | 15 | 7 | 0.0 | 0.0 | 0.00 | 0.00 | 0.00 | 71 | 1015.3 |
| 20260505040348 | 15 | 7 | 0.0 | 1.6 | 0.00 | 0.00 | 0.00 | 68 | 1015.3 |
| 20260505035844 | 15 | 270 | 0.0 | 0.0 | 0.00 | 0.00 | 0.00 | 68 | 1015.4 |
| 20260505035340 | 16 | 270 | 0.0 | 0.0 | 0.00 | 0.00 | 0.00 | 67 | 1015.2 |
| 20260505034838 | 16 | 270 | 0.0 | 0.0 | 0.00 | 0.00 | 0.00 | 61 | 1015.2 |
| 20260505034334 | 16 | 289 | 0.0 | 0.0 | 0.00 | 0.00 | 0.00 | 60 | 1015.1 |
| 20260505033832 | 16 | 262 | 0.0 | 0.0 | 0.00 | 0.00 | 0.00 | 59 | 1015.2 |
| 20260505033328 | 17 | 262 | 0.0 | 1.6 | 0.00 | 0.00 | 0.00 | 59 | 1015.3 |
| 20260505032827 | 17 | 300 | 0.0 | 4.8 | 0.00 | 0.00 | 0.00 | 58 | 1015.3 |
| 20260505032322 | 16 | 270 | 0.0 | 0.0 | 0.00 | 0.00 | 0.00 | 62 | 1015.3 |
| 20260505031820 | 16 | 279 | 0.0 | 0.0 | 0.00 | 0.00 | 0.00 | 65 | 1015.3 |
| 20260505031316 | 17 | 261 | 0.0 | 1.6 | 0.00 | 0.00 | 0.00 | 65 | 1015.3 |
| 20260505030814 | 17 | 270 | 0.0 | 0.0 | 0.00 | 0.00 | 0.00 | 61 | 1015.2 |
| 20260505030310 | 17 | 270 | 0.0 | 0.0 | 0.00 | 0.00 | 0.00 | 56 | 1015.3 |
| 20260505025805 | 18 | 270 | 0.0 | 0.0 | 0.00 | 0.00 | 0.00 | 56 | 1015.4 |
| 20260505025304 | 18 | 270 | 0.0 | 0.0 | 0.00 | 0.00 | 0.00 | 57 | 1015.4 |
| 20260505024801 | 18 | 270 | 0.0 | 1.6 | 0.00 | 0.00 | 0.00 | 56 | 1015.4 |
| 20260505024258 | 18 | 220 | 0.0 | 3.2 | 0.00 | 0.00 | 0.00 | 56 | 1015.2 |
| 20260505023755 | 18 | 168 | 0.0 | 1.6 | 0.00 | 0.00 | 0.00 | 55 | 1015.2 |
| 20260505023252 | 18 | 90 | 0.0 | 0.0 | 0.00 | 0.00 | 0.00 | 55 | 1015.3 |
| 20260505022750 | 18 | 180 | 0.0 | 3.2 | 0.00 | 0.00 | 0.00 | 55 | 1015.3 |
| 20260505022247 | 18 | 352 | 0.0 | 3.2 | 0.00 | 0.00 | 0.00 | 56 | 1015.3 |
| 20260505021743 | 18 | 270 | 0.0 | 0.0 | 0.00 | 0.00 | 0.00 | 55 | 1015.2 |
| 20260505021240 | 18 | 270 | 0.0 | 0.0 | 0.00 | 0.00 | 0.00 | 55 | 1014.9 |
| 20260505020736 | 18 | 270 | 0.0 | 0.0 | 0.00 | 0.00 | 0.00 | 55 | 1015.0 |
| 20260505020231 | 18 | 254 | 0.0 | 0.0 | 0.00 | 0.00 | 0.00 | 54 | 1015.1 |
| 20260505015729 | 18 | 203 | 0.0 | 0.0 | 0.00 | 0.00 | 0.00 | 54 | 1014.9 |
| 20260505015226 | 18 | 203 | 0.0 | 0.0 | 0.00 | 0.00 | 0.00 | 54 | 1015.2 |
| 20260505014723 | 19 | 203 | 0.0 | 1.6 | 0.00 | 0.00 | 0.00 | 54 | 1014.8 |
| 20260505014220 | 19 | 188 | 0.0 | 0.0 | 0.00 | 0.00 | 0.00 | 53 | 1015.0 |
| 20260505013717 | 19 | 174 | 0.0 | 3.2 | 0.00 | 0.00 | 0.00 | 53 | 1014.9 |
| 20260505013214 | 20 | 154 | 0.0 | 0.0 | 0.00 | 0.00 | 0.00 | 52 | 1014.8 |
| 20260505012712 | 20 | 180 | 0.0 | 1.6 | 0.00 | 0.00 | 0.00 | 52 | 1014.7 |
| 20260505012209 | 20 | 180 | 0.0 | 1.6 | 0.00 | 0.00 | 0.00 | 52 | 1014.8 |
| 20260505011705 | 20 | 158 | 0.0 | 3.2 | 0.00 | 0.00 | 0.00 | 53 | 1014.9 |
| 20260505011202 | 20 | 194 | 0.0 | 3.2 | 0.00 | 0.00 | 0.00 | 53 | 1014.6 |
| 20260505010657 | 20 | 164 | 0.0 | 3.2 | 0.00 | 0.00 | 0.00 | 53 | 1014.5 |
| 20260505010154 | 20 | 198 | 0.0 | 4.8 | 0.00 | 0.00 | 0.00 | 54 | 1014.5 |
| 20260505005650 | 20 | 203 | 0.0 | 3.2 | 0.00 | 0.00 | 0.00 | 55 | 1014.4 |
| 20260505005148 | 20 | 151 | 0.0 | 0.0 | 0.00 | 0.00 | 0.00 | 55 | 1014.5 |
| 20260505004645 | 20 | 157 | 0.0 | 3.2 | 0.00 | 0.00 | 0.00 | 54 | 1014.3 |
| 20260505004141 | 20 | 0 | 0.0 | 0.0 | 0.00 | 0.00 | 0.00 | 54 | 1014.5 |
| 20260505003638 | 20 | 0 | 0.0 | 0.0 | 0.00 | 0.00 | 0.00 | 53 | 1014.4 |
| 20260505003136 | 20 | 0 | 0.0 | 0.0 | 0.00 | 0.00 | 0.00 | 54 | 1014.2 |
| 20260505002632 | 20 | 0 | 0.0 | 1.6 | 0.00 | 0.00 | 0.00 | 55 | 1014.6 |
| 20260505002130 | 20 | 0 | 0.0 | 0.0 | 0.00 | 0.00 | 0.00 | 54 | 1014.3 |
| 20260505001627 | 20 | 0 | 0.0 | 0.0 | 0.00 | 0.00 | 0.00 | 54 | 1014.2 |
| 20260505001124 | -17 | 0.0 | 0.0 | 0.00 | 0.00 | 0.00 | 1014.3 | ||
| 20260505000621 | -17 | 0.0 | 0.0 | 0.00 | 0.00 | 0.00 | 1014.2 | ||
| 20260505000119 | -17 | 0.0 | 0.0 | 0.00 | 0.00 | 0.00 | 1014.4 | ||
| 20260504235615 | -17 | 0.0 | 0.0 | 0.00 | 0.00 | 0.00 | 1014.3 | ||
| 20260504235112 | -17 | 0.0 | 0.0 | 0.00 | 0.00 | 0.00 | 1014.4 | ||
| 20260504234609 | -17 | 0.0 | 0.0 | 0.00 | 0.00 | 0.00 | 1014.1 | ||
| 20260504234106 | -17 | 0.0 | 0.0 | 0.00 | 0.00 | 0.00 | 1014.0 | ||
| 20260504233601 | -17 | 0.0 | 0.0 | 0.00 | 0.00 | 0.00 | 1014.0 | ||
| 20260504233058 | -17 | 0.0 | 0.0 | 0.00 | 0.00 | 0.00 | 1014.1 | ||
| 20260504232556 | -17 | 0.0 | 0.0 | 0.00 | 0.00 | 0.00 | 1014.1 | ||
| 20260504232053 | -17 | 0.0 | 0.0 | 0.00 | 0.00 | 0.00 | 1014.1 | ||
| 20260504231549 | -17 | 0.0 | 0.0 | 0.00 | 0.00 | 0.00 | 1013.9 | ||
| 20260504231045 | -17 | 0.0 | 0.0 | 0.00 | 0.00 | 0.00 | 1013.9 | ||
| 20260504230542 | -17 | 0.0 | 0.0 | 0.00 | 0.00 | 0.00 | 1014.1 | ||
| 20260504230041 | -17 | 0.0 | 0.0 | 0.00 | 0.00 | 0.00 | 1013.9 | ||
| 20260504225538 | -17 | 0.0 | 0.0 | 0.00 | 0.00 | 0.00 | 1013.6 | ||
| 20260504225035 | -17 | 0.0 | 0.0 | 0.00 | 0.00 | 0.00 | 1013.9 | ||
| 20260504224531 | -17 | 0.0 | 0.0 | 0.00 | 0.00 | 0.00 | 1013.9 | ||
| 20260504224029 | -17 | 0.0 | 0.0 | 0.00 | 0.00 | 0.00 | 1014.0 | ||
| 20260504223525 | -17 | 0.0 | 0.0 | 0.00 | 0.00 | 0.00 | 1014.0 | ||
| 20260504223021 | -17 | 0.0 | 0.0 | 0.00 | 0.00 | 0.00 | 1013.9 | ||
| 20260504222518 | -17 | 0.0 | 0.0 | 0.00 | 0.00 | 0.00 | 1014.1 | ||
| 20260504222016 | -17 | 0.0 | 0.0 | 0.00 | 0.00 | 0.00 | 1014.0 |